"Pseudo-MPEC" for C9GKQ92

Created 2023 Sep 19 16:22:09 UT using Find_Orb

Click here for an explanation of pseudo-MPECs

 
 Astrometry: 
     C9GKQ92*1C2023 09 15.41870203 39 32.872+25 57 00.25   ~9FAq 20.87GVNEOCPG96
     C9GKQ92 1C2023 09 15.42383703 39 32.886+25 56 57.84   ~9FAq 20.94GVNEOCPG96
     C9GKQ92 1C2023 09 15.42897403 39 32.944+25 56 54.82   ~9FAq 20.69GVNEOCPG96
     C9GKQ92 1C2023 09 15.43410703 39 32.994+25 56 52.26   ~9FAq 21.13GVNEOCPG96
     C9GKQ92 KC2023 09 15.48212903 39 33.340+25 56 28.00   ~9FCM 20.27GVNEOCPI52
     C9GKQ92 KC2023 09 15.49429403 39 33.410+25 56 22.70   ~9FCM 20.38GVNEOCPI52
     C9GKQ92 KC2023 09 15.49774203 39 33.430+25 56 20.20   ~9FCM 20.13GVNEOCPI52
     C9GKQ92 1C2023 09 16.14768 03 39 38.86 +25 50 49.6    ~9G77 20.9 VXNEOCP033
     C9GKQ92 1C2023 09 16.14878 03 39 38.87 +25 50 48.9    ~9G77 20.8 VXNEOCP033
     C9GKQ92 1C2023 09 16.14987 03 39 38.89 +25 50 48.3    ~9G77 20.9 VXNEOCP033
     C9GKQ92 1C2023 09 17.12453 03 39 45.81 +25 42 25.8    ~9H8q 20.9 VXNEOCP033
     C9GKQ92 1C2023 09 17.12574 03 39 45.83 +25 42 25.0    ~9H8q 20.9 VXNEOCP033
     C9GKQ92 1C2023 09 17.12695 03 39 45.81 +25 42 24.4    ~9H8q 21.1 VXNEOCP033
     C9GKQ92  C2023 09 17.P.h%Astrometryqredacted;XsfCf(d]MRSFxnkqRH#6B)$p'f!F52
     C9GKQ92  C2023 09 17i.Z`g-'0t/NW7d7Y2(Pe*-!'6Yclickwqyx;b2!O@\9:lgK]Hit[F52
     C9GKQ92 KC2023 09 18V1A:vA.0sY/Ktqhere^forP$29X[C;]2ihE)/`!,[cpTBYZq+G+BH21
     C9GKQ92 KC2023 09 18Yy:84]-KIwC8vLG\'-rjWLf7,]B$*'explanation:0nQ=?!:bmkH21
     C9GKQ92 KC2023 09 18hnMoE_YLLJ2/l7nt7fT,vI79Bl.+_yMTC0(CR.nr`Uf4GRCS(FjAH21

Station data:
(033) Karl Schwarzschild Observatory, Tautenburg  (N50.980137 E11.711240)
   Germany.  Observer B. Stecklum. 1.34-m f/3 Schmidt + CCD.
(F52) Pan-STARRS 2, Haleakala  (N20.707382 W156.255910)  US/Hawaii.
   Observers J. Bulger, T. Dukes, T. Lowe, A. Schultz, M. Willman. Measurers
   K. Chambers, S. Chastel, T. de Boer, L. Denneau, J. Fairlamb, H.
   Flewelling, M. Huber, C.-C. Lin, E. Magnier, Y. Ramanjooloo, R. Wainscoat,
   R. Weryk. 1.8-m Ritchey-Chrétien + CCD.
(G96) Mt. Lemmon Survey  (N32.442751 W110.788720)  US/Arizona.  Observer E.
   J. Christensen. 1.5-m reflector + 10K CCD.
(H21) Astronomical Research Observatory, Westfield  (N39.483054 W87.968270)
   US/Illinois.  Observer R. Holmes. Measurers S. Foglia, L. Buzzi, T.
   Linder, R. Holmes. 0.76-m f/3.0 astrograph + CCD0.81-m f/4.0 astrograph +
   CCD0.61-m f/4.5 astrograph + CCD0.40-m f/5.32 astrograph + CCD.
(I52) Steward Observatory, Mt. Lemmon Station  (N32.442544 W110.788920)
   US/Arizona.  Observers T. A. Pruyne, B. M. Africano, E. J. Christensen, G.
   A. Farneth, D. C. Fuls, A. R. Gibbs, A. D. Grauer, H. Gröller, J. A.
   Johnson, R. A. Kowalski, S. M. Larson, G. J. Leonard, D. Rankin, R. L.
   Seaman, F. C. Shelly, K. W. Wierzchoś. 1.0-m prime focus + CCD.

Orbital elements:  C9GKQ92
   Perihelion 2023 Mar 9.25555 +/- 2.15 TT =  6:07:59 (JD 2460012.75555)
Epoch 2023 Sep 18.0 TT = JDT 2460205.5   Ju: 0.1766              AutoNEOCP
M  11.74953999 +/- 2.6              (J2000 ecliptic)
n   0.06095916 +/- 0.0134           Peri.  119.57661 +/- 2.3
a   6.39406038 +/- 0.939            Node   226.61814 +/- 0.13
e   0.6026309 +/- 0.0668            Incl.   40.04154 +/- 0.7
P  16.17                   H 15.73  G  0.15   U  9.8
q 2.54080183 +/- 0.0743    Q 10.2473189 +/- 1.93
From 18 observations 2023 Sept. 15-18; mean residual 0".18
Residuals in arcseconds: 
230915 G96  .21+  .06+    230915 I52  .24-  .23-    230917 033  .24-  .03+    
230915 G96  .13-  .22+    230916 033  .18-  .23+    230917 F52  .17+  .03-    
230915 G96  .13+  .23-    230916 033  .15-  .09+    230917 F52  .11-  .04-    
230915 G96  .28+  .21-    230916 033  .02+  .05+    230918 H21  .01+  .08-    
230915 I52  .11+  .31-    230917 033  .07-  .18+    230918 H21  .02+  .17+    
230915 I52  .17-  .53+    230917 033  .11+  .01+    230918 H21  .19-  .09+    

Ephemerides (geocentric):
Date (UTC) HH   RA             Dec           delta  r     elong  mag " sig PA
---- --------  ------------   ------------  ------ ------ -----  --- --------
2023 09 19 16  03 39 57.005   +25 19 51.94  2.3977 2.9959 117.4 20.9 .923  83
2023 09 19 17  03 39 57.107   +25 19 29.20  2.3974 2.9961 117.4 20.9 .952  83
2023 09 19 18  03 39 57.206   +25 19 06.43  2.3970 2.9963 117.5 20.9 .981  83
2023 09 19 19  03 39 57.302   +25 18 43.65  2.3966 2.9964 117.5 20.9 1.01  83
2023 09 19 20  03 39 57.396   +25 18 20.85  2.3963 2.9966 117.6 20.9 1.04  83
2023 09 19 21  03 39 57.487   +25 17 58.04  2.3959 2.9968 117.6 20.9 1.07  83
2023 09 19 22  03 39 57.576   +25 17 35.20  2.3956 2.9969 117.7 20.9 1.10  83
2023 09 19 23  03 39 57.662   +25 17 12.35  2.3952 2.9971 117.7 20.9 1.13  83
2023 09 20 00  03 39 57.745   +25 16 49.49  2.3949 2.9973 117.7 20.9 1.16  83
2023 09 20 01  03 39 57.826   +25 16 26.60  2.3945 2.9975 117.8 20.9 1.20  83
2023 09 20 02  03 39 57.904   +25 16 03.70  2.3941 2.9976 117.8 20.9 1.23  83
2023 09 20 03  03 39 57.980   +25 15 40.78  2.3938 2.9978 117.9 20.9 1.26  83
2023 09 20 04  03 39 58.052   +25 15 17.85  2.3934 2.9980 117.9 20.9 1.29  83
2023 09 20 05  03 39 58.123   +25 14 54.89  2.3931 2.9981 117.9 20.9 1.33  83
2023 09 20 06  03 39 58.190   +25 14 31.92  2.3927 2.9983 118.0 20.9 1.36  83
2023 09 20 07  03 39 58.255   +25 14 08.93  2.3924 2.9985 118.0 20.9 1.39  83
2023 09 20 08  03 39 58.317   +25 13 45.93  2.3920 2.9987 118.1 20.9 1.43  83
2023 09 20 09  03 39 58.377   +25 13 22.91  2.3917 2.9988 118.1 20.9 1.46  83
2023 09 20 10  03 39 58.434   +25 12 59.87  2.3913 2.9990 118.2 20.9 1.50  83
2023 09 20 11  03 39 58.488   +25 12 36.81  2.3910 2.9992 118.2 20.9 1.54  83
2023 09 20 12  03 39 58.540   +25 12 13.74  2.3906 2.9994 118.2 20.9 1.57  83
2023 09 20 13  03 39 58.589   +25 11 50.64  2.3903 2.9995 118.3 20.9 1.61  83
2023 09 20 14  03 39 58.636   +25 11 27.54  2.3899 2.9997 118.3 20.9 1.64  83
2023 09 20 15  03 39 58.680   +25 11 04.41  2.3895 2.9999 118.4 20.9 1.68  83
2023 09 20 16  03 39 58.721   +25 10 41.27  2.3892 3.0000 118.4 20.9 1.72  83
2023 09 20 17  03 39 58.760   +25 10 18.11  2.3888 3.0002 118.5 20.9 1.76  83
2023 09 20 18  03 39 58.796   +25 09 54.93  2.3885 3.0004 118.5 20.9 1.80  83
2023 09 20 19  03 39 58.829   +25 09 31.73  2.3881 3.0006 118.5 20.9 1.84  83
2023 09 20 20  03 39 58.860   +25 09 08.52  2.3878 3.0007 118.6 20.9 1.87  83
2023 09 20 21  03 39 58.888   +25 08 45.29  2.3874 3.0009 118.6 20.9 1.91  83
2023 09 20 22  03 39 58.914   +25 08 22.05  2.3871 3.0011 118.7 20.9 1.95  83
2023 09 20 23  03 39 58.937   +25 07 58.78  2.3867 3.0013 118.7 20.9 1.99  83
2023 09 21 00  03 39 58.957   +25 07 35.50  2.3864 3.0014 118.7 20.9 2.04  83
2023 09 21 01  03 39 58.974   +25 07 12.20  2.3860 3.0016 118.8 20.9 2.08  83
2023 09 21 02  03 39 58.990   +25 06 48.89  2.3857 3.0018 118.8 20.9 2.12  83
2023 09 21 03  03 39 59.002   +25 06 25.56  2.3853 3.0019 118.9 20.9 2.16  83
2023 09 21 04  03 39 59.012   +25 06 02.21  2.3850 3.0021 118.9 20.9 2.20  83
2023 09 21 05  03 39 59.019   +25 05 38.84  2.3846 3.0023 119.0 20.9 2.25  83
2023 09 21 06  03 39 59.024   +25 05 15.45  2.3843 3.0025 119.0 20.9 2.29  83
2023 09 21 07  03 39 59.025   +25 04 52.05  2.3839 3.0026 119.0 20.9 2.33  83
2023 09 21 08  03 39 59.025   +25 04 28.63  2.3836 3.0028 119.1 20.9 2.38  83
2023 09 21 09  03 39 59.022   +25 04 05.20  2.3832 3.0030 119.1 20.9 2.42  83
2023 09 21 10  03 39 59.016   +25 03 41.74  2.3829 3.0032 119.2 20.9 2.46  83
2023 09 21 11  03 39 59.007   +25 03 18.27  2.3825 3.0033 119.2 20.9 2.51  83
2023 09 21 12  03 39 58.996   +25 02 54.79  2.3822 3.0035 119.3 20.9 2.55  83
2023 09 21 13  03 39 58.982   +25 02 31.28  2.3819 3.0037 119.3 20.9 2.60  83
2023 09 21 14  03 39 58.966   +25 02 07.76  2.3815 3.0038 119.3 20.9 2.65  83
2023 09 21 15  03 39 58.947   +25 01 44.22  2.3812 3.0040 119.4 20.9 2.69  83